Weather History for Chillicothe, MO

Change the Weather History Date:

Wednesday, December 19, 2012

  Actual Average (KIRK) Record (KIRK)
Temperature  
Mean Temperature 34 °F 28 °F  
Max Temperature 39 °F 36 °F 61 °F (1941)
Min Temperature 30 °F 19 °F -18 °F (1983)
Degree Days  
Heating Degree Days 30 37  
Month to date heating degree days 663  
Since 1 July heating degree days 1884  
Cooling Degree Days 0 0  
Month to date cooling degree days 0  
Year to date cooling degree days 939  
Moisture  
Dew Point 32 °F    
Average Humidity 87    
Maximum Humidity 97    
Minimum Humidity 79    
Precipitation  
Precipitation 0.31 in 0.06 in 0.95 in (1933)
Month to date precipitation 1.16  
Year to date precipitation 38.72  
Sea Level Pressure  
Sea Level Pressure 29.81 in    
Wind  
Wind Speed 5 mph (ENE)    
Max Wind Speed 20 mph    
Max Gust Speed 29 mph    
T = Trace of Precipitation, MM = Missing Value Source: NWS Daily Summary

Daily Weather History Graph

Daily Weather History Graph

Search for Another Location

Airport:

Trip Planner

Search our weather history database for the weather conditions in past years. The results will help you decide how hot, cold, wet, or windy it might be!

Date:

Astronomy

Dec. 19, 2012 Rise Set
Actual Time 7:31 AM CST 4:52 PM CST
Civil Twilight 7:00 AM CST 5:22 PM CST
Nautical Twilight 6:26 AM CST 5:56 PM CST
Astronomical Twilight 5:53 AM CST 6:29 PM CST
Moon 11:41 AM CST (12/19) No Moon Set
Length of Visible Light 10h 21m
Length of Day
9h 20m
Waxing Crescent, 45% of the Moon is Illuminated
Dec 19
Waxing Crescent
Dec 19
First Quarter
Dec 28
Full
Jan 4
Last Quarter
Jan 11
New

Hourly Weather History & Observations

Time (CST) Temp. Windchill Dew Point Humidity Pressure Visibility Wind Dir Wind Speed Gust Speed Precip Events Conditions
12:52 AM 30.9 °F - 28.0 °F 89% 29.96 in - Calm Calm - N/A   Unknown
1:52 AM 30.9 °F - 28.0 °F 89% 29.98 in - Calm Calm - N/A   Unknown
2:52 AM 30.9 °F - 28.0 °F 89% 29.97 in - Calm Calm - N/A   Unknown
3:52 AM 33.1 °F - 28.9 °F 85% 29.96 in - Calm Calm - N/A   Unknown
4:52 AM 33.1 °F 30.0 °F 30.0 °F 89% 29.96 in - Variable 3.5 mph - N/A   Unknown
5:52 AM 33.1 °F 28.7 °F 30.0 °F 89% 29.96 in - NE 4.6 mph - N/A   Unknown
6:52 AM 33.1 °F 28.7 °F 30.0 °F 89% 29.96 in - East 4.6 mph - N/A   Unknown
7:52 AM 34.0 °F 28.8 °F 30.0 °F 85% 29.96 in - East 5.8 mph - N/A   Unknown
8:52 AM 34.0 °F 26.0 °F 30.9 °F 89% 29.95 in - ESE 10.4 mph - N/A   Unknown
9:52 AM 36.0 °F 30.3 °F 32.0 °F 86% 29.96 in - ESE 6.9 mph - N/A   Unknown
10:52 AM 37.0 °F 31.6 °F 32.0 °F 82% 29.96 in - Variable 6.9 mph - N/A   Unknown
11:52 AM 37.9 °F 32.7 °F 32.0 °F 79% 29.91 in - ENE 6.9 mph - N/A   Unknown
12:52 PM 37.9 °F 33.5 °F 32.0 °F 79% 29.89 in - ENE 5.8 mph - N/A   Unknown
1:52 PM 37.9 °F 31.5 °F 33.1 °F 83% 29.83 in - ENE 9.2 mph - 0.01 in   Unknown
2:52 PM 37.9 °F 32.1 °F 33.1 °F 83% 29.79 in - ENE 8.1 mph 17.3 mph N/A   Unknown
3:52 PM 39.0 °F 32.3 °F 33.1 °F 79% 29.77 in - East 10.4 mph - N/A   Unknown
4:52 PM 39.0 °F 33.4 °F 33.1 °F 79% 29.75 in - East 8.1 mph - N/A   Unknown
5:52 PM 39.0 °F 29.6 °F 33.1 °F 79% 29.70 in - East 18.4 mph 24.2 mph N/A   Unknown
6:52 PM 37.9 °F 27.9 °F 35.1 °F 89% 29.68 in - ESE 19.6 mph 28.8 mph 0.02 in   Unknown
7:52 PM 37.9 °F 29.6 °F 36.0 °F 93% 29.62 in - East 13.8 mph 21.9 mph 0.02 in   Unknown
8:52 PM 37.9 °F 31.5 °F 37.0 °F 97% 29.62 in - East 9.2 mph - 0.07 in   Unknown
9:52 PM 37.9 °F 32.1 °F 37.0 °F 97% 29.58 in - NNE 8.1 mph - N/A   Unknown
10:52 PM 37.9 °F 30.0 °F 37.0 °F 97% 29.53 in - NE 12.7 mph 19.6 mph 0.01 in   Unknown
11:52 PM 37.0 °F 27.7 °F 36.0 °F 96% 29.48 in - ENE 16.1 mph 26.5 mph 0.18 in   Unknown
11:59 PM 37.9 °F 28.5 °F 36.0 °F 93% 29.44 in - ENE 17.3 mph 26.5 mph N/A   Unknown